Forum


Ask a question

No. FOSS Question Date
Views
Answers
1 DWSIM Issues related to DWSIM in mac 2019-01-08 15:36:26.443308 16 1
2 DWSIM upload user define compound 2018-12-23 06:48:53.388854 48 1
3 DWSIM DWSIM Wastewater treatment process 2018-12-19 20:43:41.379014 52 1
4 DWSIM Problem with "Valve" 2018-12-05 08:35:47.995121 80 3
5 DWSIM find the enthalpy in python script 2018-12-04 04:49:54.852579 60 1
6 DWSIM Rigourous Distillation column error with image file 2018-11-21 12:52:40.637300 74 1
7 DWSIM error in a kinetic reaction 2018-11-01 11:40:17.000000 127 1
8 DWSIM error in LLE ternary graph utility 2018-10-08 15:22:17.000000 135 2
9 DWSIM doubt regarding reaction furnace and condenser 2018-09-15 14:15:00.000000 133 1
10 DWSIM Error in stichiometry 2018-08-24 09:17:41.000000 165 3
11 DWSIM Simulation of process model for n number of data points or observations 2018-08-24 08:51:16.000000 164 1
12 DWSIM Development of graphical user interface in Excel 2018-08-24 08:45:45.000000 160 1
13 DWSIM about flowsheet submission 2018-07-29 12:56:35.000000 237 1
14 DWSIM about a scrubber design 2018-07-22 15:53:53.000000 216 1
15 DWSIM Pipe unit operation 2018-07-14 14:42:47.000000 209 1
16 DWSIM About internship's forms 2018-07-05 10:00:45.000000 216 1
17 DWSIM Simulating a condensor 2018-06-24 04:42:34.000000 238 1
18 DWSIM Python Documentation For DWSIM 2018-06-21 06:57:47.000000 219 1
19 DWSIM Bubble Column Reactor Substitute 2018-06-20 05:45:42.000000 220 1
20 DWSIM Compound not available 2018-06-01 17:08:01.000000 205 1
21 DWSIM help about vinyl chloride 2018-05-28 18:01:35.000000 189 1
22 DWSIM Crude Desalter Simulator 2018-05-27 06:17:30.000000 215 1
23 DWSIM separator column in compound separater 2018-05-26 18:24:56.000000 174 1
24 DWSIM fixing the output data for a given problem 2018-05-26 17:18:25.000000 190 1
25 DWSIM Conversion reactor 2018-05-21 20:31:08.000000 241 4
26 DWSIM UNIQUAC package with default flash doesnot converge. 2018-05-17 18:37:34.000000 255 3
27 DWSIM Brine evaporation in DWSIM 2018-04-21 04:54:02.000000 300 1
28 DWSIM Regarding adding compuonds in DWSIM 2018-04-04 11:45:22.000000 476 1
29 DWSIM About unit operations in DWSIM 2018-04-03 12:00:22.000000 322 1
30 DWSIM CATALYST is not present 2018-03-21 18:44:11.000000 301 2
31 DWSIM Dehydration Plant Simulation 2018-02-27 14:03:49.000000 308 2
32 DWSIM Dehydration Plant 2018-02-19 15:29:52.000000 325 1
33 DWSIM Proble with opening DWSIM file into software 2018-02-02 07:11:26.000000 363 1
34 DWSIM Kinetic reaction 2018-01-21 05:17:44.000000 320 1
35 DWSIM Rigorous Distillation 2018-01-12 06:01:32.000000 374 1
36 DWSIM PFR step size error 2018-01-11 10:26:39.000000 318 1
37 DWSIM Displaying reaction results 2017-12-31 08:31:37.000000 340 1
38 DWSIM can you suggest me the solution for the error I'm getting while designing methanol synthesis process ? 2017-12-22 12:22:28.000000 330 1
39 DWSIM DWSIM for membrane separation 2017-10-30 17:26:45.000000 487 1
40 DWSIM Downloading the Tutorials 2017-10-03 13:49:40.000000 387 1
41 DWSIM Issue in DWSIM Software Installation 2017-10-02 05:45:54.000000 477 1
42 DWSIM Three phase open-source library 2017-09-13 14:22:55.000000 380 1
43 DWSIM Three phase library open-source 2017-09-13 14:22:23.000000 402 1
44 DWSIM can we use DWSIM for simulutions for a spray or rotay drier systems 2017-09-07 08:36:51.000000 417 1
45 DWSIM internship details 2017-08-14 14:13:59.000000 394 1
46 DWSIM Regarding Submission of flow sheet and its deadline. 2017-08-07 15:00:09.000000 413 1
47 DWSIM Assigning operating pressure for distillation column 2017-07-26 18:58:47.000000 454 1
48 DWSIM step size becomes too small error in plug flow reactor 2017-05-14 05:44:09.000000 560 1
49 DWSIM double clicking not opening main editing window 2017-05-12 02:47:51.000000 392 1
50 DWSIM Multi component Distillation 2017-04-25 12:11:09.000000 785 1
51 DWSIM Unbalanced equation 2017-03-19 14:23:10.000000 512 2
52 DWSIM DWSIM components 2017-03-08 14:13:14.000000 607 2
53 DWSIM RECYCLE STREAM 2017-01-10 04:40:53.000000 963 1
54 DWSIM SIMULATION inquiry 2016-12-29 06:53:02.000000 533 2
55 DWSIM HEAT EXCHANGER 2016-12-04 05:57:37.000000 741 1
56 DWSIM OPEN SOURCE APPLICATION 2016-12-03 04:08:30.000000 561 5
57 DWSIM FLASH DRUM SEPARATOR 2016-12-03 02:40:31.000000 628 1
58 DWSIM New Compound Creator Study 2016-05-26 11:56:10.000000 1518 1
59 DWSIM How to install and run DWSIM on MAC AIR? 2016-04-25 10:40:30.000000 1031 2
60 DWSIM Creating component hypothetically 2016-04-22 09:22:23.000000 2773 2
61 DWSIM Equilibrium reactor simulation 2016-02-26 15:40:26.000000 3190 2
62 DWSIM Textbook companion project 2016-02-10 13:38:57.000000 844 2
63 DWSIM Conversion of Reaction 2016-01-04 14:31:49.000000 1110 1
64 DWSIM Unavailability of compounds in Database 2015-12-24 14:14:49.000000 1543 2
65 DWSIM TEXTBOOK COMPANION INTERNSHIP 2015-12-23 17:35:03.000000 788 1
66 DWSIM Transient simulations and Stream wise report 2015-10-21 07:04:10.000000 1134 1